Flag for Canada Weather past 2 weeks in Whitehorse, Yukon Territory, Canada

Now
28 °F

Light snow. Mostly cloudy.


Feels Like: 18 °F
Forecast: 20 / 34 °F
Wind: 13 mph from South

Location: Withehorse

Current Time: Mar 4, 2015 at 5:24:10 PM

Latest Report: Mar 4, 2015 at 5:00 PM


Visibility: 1 mi

Pressure: 30.00 "Hg

Humidity: 86%

Dew point: 25 °F

Location of WhitehorseLocation

Historic Weather in Whitehorse — Graph

°F

Whitehorse temperature yesterday

Maximum temperature yesterday: 36 °F (at 4:00 PM)
Minimum temperature yesterday: 16 °F (at 1:00 AM)
Average temperature yesterday: 23 °F

Past Weeks' High & Low Weather Summary

 TemperatureHumidityPressure
High46 °F (Feb 23, 4:00 PM)93% (Feb 19, 1:00 AM)30.66 "Hg (Feb 19, 1:00 AM)
Low1 °F (Feb 27, 7:00 AM)23% (Mar 1, 2:00 PM)29.80 "Hg (Feb 18, 1:00 PM)
Average27 °F68%30.29 "Hg
* Reported Feb 17 4:00 PM — Mar 4 4:00 PM, Whitehorse, Weather by CustomWeather, © 2015

Note: Actual official high and low records may vary slightly from our data, if they occured in-between our weather recording intervals... More about our weather records

Advertising

Whitehorse weather history for previous 24 hours

 ConditionsComfort  
Time TempWeatherWind HumidityBarometerVisibility
4:00 PM
Wed, Mar 4
28 °FLight snow. Ice fog.13 mph86%30.02 "Hg1 mi
2:00 PM27 °FChilly.12 mph93%30.05 "Hg1 mi
1:00 PM27 °FLight snow. Overcast.10 mph86%30.05 "Hg4 mi
12:00 PM25 °FMore clouds than sun.5 mph80%30.06 "Hg30 mi
11:00 AM21 °FMore clouds than sun.No wind80%30.08 "Hg40 mi
10:00 AM18 °FMore clouds than sun.2 mph86%30.09 "Hg40 mi
9:00 AM18 °FOvercast.3 mph86%30.10 "Hg40 mi
8:00 AM14 °FScattered clouds.No wind85%30.10 "Hg40 mi
7:00 AM14 °FPassing clouds.2 mph92%30.10 "Hg40 mi
6:00 AM16 °FClear.No wind86%30.11 "Hg15 mi
5:00 AM18 °FClear.3 mph86%30.10 "Hg15 mi
4:00 AM18 °FClear.3 mph79%30.11 "Hg15 mi
3:00 AM21 °FPassing clouds.6 mph80%30.11 "Hg15 mi
2:00 AM19 °FClear.6 mph86%30.13 "Hg15 mi
1:00 AM21 °FClear.9 mph80%30.13 "Hg15 mi
12:00 AM23 °FClear.5 mph74%30.14 "Hg15 mi
11:00 PM
Tue, Mar 3
23 °FPassing clouds.12 mph80%30.13 "Hg15 mi
10:00 PM27 °FPassing clouds.3 mph69%30.13 "Hg15 mi
9:00 PM27 °FPassing clouds.12 mph69%30.12 "Hg15 mi
8:00 PM25 °FPassing clouds.6 mph59%30.13 "Hg15 mi
7:00 PM30 °FPassing clouds.2 mph47%30.10 "Hg40 mi
6:00 PM28 °FPassing clouds.3 mph55%30.09 "Hg40 mi
5:00 PM36 °FPassing clouds.No wind41%30.08 "Hg40 mi
Weather by CustomWeather, © 2015

See weather overviewHow to use our weather pages